Hourly Data Report for July 08, 2021

FLIN FLON
MANITOBA
Current Station Operator: ECCC - MSC

54°41'00.000" N
101°41'00.000" W
303.90 m
5050919
71954
WFO

Download Data

Hourly Data (July 2021)
Hourly Data Report for July 8, 2021
TIME
LST
Temp Definition
°C
Dew Point Definition
°C
Rel Hum Definition
%
Precip. Amount Definition
mm

Wind Dir Definition
10's deg

Wind Spd Definition
km/h
Visibility Definition
km
Stn Press Definition
kPa
Hmdx Definition


Wind Chill Definition


Weather Definition


00:00 16.2 11.6 74 0.0 21 7   97.58     LegendNANA
01:00 15.1 10.7 75 0.0 21 7   97.59     LegendNANA
02:00 14.3 10.6 79 0.0 20 4   97.60     LegendNANA
03:00 13.0 10.7 86 0.0 20 2   97.57     LegendNANA
04:00 12.6 10.6 88 0.0 24 3   97.56     LegendNANA
05:00 12.5 11.1 91 0.0 23 5   97.59     LegendNANA
06:00 15.8 12.7 82 0.0 21 8   97.61     LegendNANA
07:00 18.3 12.7 70 0.0 20 6   97.59     LegendNANA
08:00 19.9 13.0 64 0.0 17 5   97.60     LegendNANA
09:00 21.9 13.5 59 0.0 18 7   97.61 25   LegendNANA
10:00 23.0 13.3 54 0.0 17 11   97.61 26   LegendNANA
11:00 24.1 10.9 43 0.0 17 13   97.59 26   LegendNANA
12:00 24.6 11.2 43 0.0 18 14   97.59 26   LegendNANA
13:00 25.4 11.1 41 0.0 17 13   97.59 27   LegendNANA
14:00 26.5 11.1 38 0.0 17 13   97.58 28   LegendNANA
15:00 26.3 11.2 39 0.0 17 15   97.58 28   LegendNANA
16:00 26.8 11.5 39 0.0 17 12   97.56 29   LegendNANA
17:00 26.8 10.9 37 0.0 17 14   97.52 29   LegendNANA
18:00 26.6 10.9 37 0.0 18 12   97.51 28   LegendNANA
19:00 25.8 12.4 44 0.0 17 10   97.48 28   LegendNANA
20:00 25.1 11.5 43 0.0 19 10   97.50 27   LegendNANA
21:00 23.1 12.7 52 0.0 20 11   97.53 26   LegendNANA
22:00 20.4 13.7 65 0.0 21 10   97.62     LegendNANA
23:00 21.5 13.2 59 0.0 20 13   97.64     LegendNANA

Notes on Data Quality.

Legend

  • E = Estimated
  • M = Missing
  • NA = Not Available*
  • [empty] = Indicates an unobserved value
Date modified: